This is the latest recevied weather packets stored in our database for station/object K3MV-13. If no packets are shown the sender has not sent any weather packets the latest 10 day(s).
| Time | Temp. | Humidity | Pressure | Rain* | Wind** | Luminosity | Snow |
|---|---|---|---|---|---|---|---|
| 1777500266 | 13.89° C | 96% | 1006.8 hPa | 8.89 mm | - | 108 W/m² | - |
| 1777499962 | 13.89° C | 96% | 1006.8 hPa | 6.1 mm | - | 18 W/m² | - |
| 1777499659 | 13.89° C | 96% | 1006.5 hPa | 1.27 mm | - | 13 W/m² | - |
| 1777499356 | 13.89° C | 96% | 1006.6 hPa | 1.27 mm | - | 16 W/m² | - |
| 1777499055 | 13.89° C | 96% | 1006.3 hPa | 0 mm | - | 46 W/m² | - |
| 1777498750 | 13.89° C | 96% | 1006.4 hPa | 0 mm | - | 56 W/m² | - |
| 1777498447 | 13.89° C | 96% | 1006.4 hPa | 0 mm | - | 33 W/m² | - |
| 1777498144 | 13.89° C | 96% | 1006.6 hPa | 1.78 mm | - | 36 W/m² | - |
| 1777497841 | 13.89° C | 96% | 1006.4 hPa | 1.78 mm | - | 75 W/m² | - |
| 1777497537 | 13.89° C | 96% | 1006.5 hPa | 0 mm | - | 106 W/m² | - |
| 1777497233 | 13.89° C | 96% | 1006.4 hPa | 3.05 mm | - | 51 W/m² | - |
| 1777496930 | 13.89° C | 96% | 1006.1 hPa | 6.1 mm | - | 84 W/m² | - |
| 1777496627 | 13.89° C | 96% | 1006.3 hPa | 10.67 mm | - | 82 W/m² | - |
| 1777496323 | 13.89° C | 96% | 1006.5 hPa | 14.99 mm | - | 33 W/m² | - |
| 1777496019 | 13.89° C | 96% | 1006.5 hPa | 10.67 mm | - | 14 W/m² | - |
| 1777495716 | 13.89° C | 95% | 1006.3 hPa | 4.83 mm | - | 11 W/m² | - |
| 1777495412 | 13.89° C | 95% | 1006.2 hPa | 3.05 mm | - | 13 W/m² | - |
| 1777495108 | 13.89° C | 95% | 1006.1 hPa | 3.05 mm | - | 44 W/m² | - |
| 1777494806 | 13.89° C | 95% | 1006.5 hPa | 6.1 mm | - | 59 W/m² | - |
| 1777494502 | 13.89° C | 95% | 1006.6 hPa | 10.67 mm | - | 38 W/m² | - |
| 1777494200 | 13.89° C | 95% | 1006.4 hPa | 11.94 mm | - | 24 W/m² | - |
| 1777493896 | 13.89° C | 94% | 1006.5 hPa | 10.67 mm | - | 40 W/m² | - |
| 1777493595 | 13.89° C | 93% | 1006.6 hPa | 4.32 mm | - | 35 W/m² | - |
| 1777493292 | 14.44° C | 93% | 1006.8 hPa | 1.27 mm | - | 45 W/m² | - |
| 1777492989 | 14.44° C | 93% | 1006.7 hPa | 0 mm | - | 54 W/m² | - |
* Rain latest hour (hover to see other rain measurements)
** Current wind speed in m/s (hover to see current wind gust speed)